﻿測定場所 (Monitoring sites),日付 (Measurement date),時間 (Measurement time),線量率 最大値 (max) μGy/h,線量率 最小値 (min) μGy/h,線量率 平均値 (average) μGy/h,
江戸川 (Edogawa),2013-09-08,23:01～24:00,0.0915,0.0799,0.0846,
江戸川 (Edogawa),2013-09-08,22:01～23:00,0.0996,0.0809,0.0906,
江戸川 (Edogawa),2013-09-08,21:01～22:00,0.112,0.0933,0.102,
江戸川 (Edogawa),2013-09-08,20:01～21:00,0.129,0.107,0.119,
江戸川 (Edogawa),2013-09-08,19:01～20:00,0.141,0.118,0.131,
江戸川 (Edogawa),2013-09-08,18:01～19:00,0.136,0.115,0.124,
江戸川 (Edogawa),2013-09-08,17:01～18:00,0.124,0.0929,0.108,
江戸川 (Edogawa),2013-09-08,16:01～17:00,0.0982,0.0823,0.0892,
江戸川 (Edogawa),2013-09-08,15:01～16:00,0.0905,0.0808,0.0861,
江戸川 (Edogawa),2013-09-08,14:01～15:00,0.0894,0.0782,0.0839,
江戸川 (Edogawa),2013-09-08,13:01～14:00,0.0911,0.0779,0.0845,
江戸川 (Edogawa),2013-09-08,12:01～13:00,0.0899,0.0780,0.0842,
江戸川 (Edogawa),2013-09-08,11:01～12:00,0.0905,0.0798,0.0846,
江戸川 (Edogawa),2013-09-08,10:01～11:00,0.0923,0.0793,0.0847,
江戸川 (Edogawa),2013-09-08,09:01～10:00,0.0906,0.0794,0.0849,
江戸川 (Edogawa),2013-09-08,08:01～09:00,0.0905,0.0808,0.0855,
江戸川 (Edogawa),2013-09-08,07:01～08:00,0.0901,0.0788,0.0845,
江戸川 (Edogawa),2013-09-08,06:01～07:00,0.0896,0.0802,0.0849,
江戸川 (Edogawa),2013-09-08,05:01～06:00,0.0901,0.0787,0.0846,
江戸川 (Edogawa),2013-09-08,04:01～05:00,0.0904,0.0783,0.0847,
江戸川 (Edogawa),2013-09-08,03:01～04:00,0.0892,0.0800,0.0852,
江戸川 (Edogawa),2013-09-08,02:01～03:00,0.0898,0.0793,0.0848,
江戸川 (Edogawa),2013-09-08,01:01～02:00,0.0901,0.0797,0.0846,
江戸川 (Edogawa),2013-09-08,00:01～01:00,0.0921,0.0787,0.0848,
江戸川 (Edogawa),2013-09-07,23:01～24:00,0.0908,0.0790,0.0844,
江戸川 (Edogawa),2013-09-07,22:01～23:00,0.0925,0.0763,0.0850,
江戸川 (Edogawa),2013-09-07,21:01～22:00,0.0925,0.0801,0.0855,
江戸川 (Edogawa),2013-09-07,20:01～21:00,0.0929,0.0804,0.0851,
江戸川 (Edogawa),2013-09-07,19:01～20:00,0.0899,0.0788,0.0847,
江戸川 (Edogawa),2013-09-07,18:01～19:00,0.0916,0.0788,0.0849,
江戸川 (Edogawa),2013-09-07,17:01～18:00,0.0899,0.0764,0.0842,
江戸川 (Edogawa),2013-09-07,16:01～17:00,0.0899,0.0766,0.0847,
江戸川 (Edogawa),2013-09-07,15:01～16:00,0.0893,0.0790,0.0847,
江戸川 (Edogawa),2013-09-07,14:01～15:00,0.0906,0.0796,0.0846,
江戸川 (Edogawa),2013-09-07,13:01～14:00,0.0922,0.0793,0.0848,
江戸川 (Edogawa),2013-09-07,12:01～13:00,0.0900,0.0792,0.0850,
江戸川 (Edogawa),2013-09-07,11:01～12:00,0.0896,0.0774,0.0845,
江戸川 (Edogawa),2013-09-07,10:01～11:00,0.0902,0.0792,0.0848,
江戸川 (Edogawa),2013-09-07,09:01～10:00,0.0900,0.0783,0.0845,
江戸川 (Edogawa),2013-09-07,08:01～09:00,0.0916,0.0758,0.0843,
江戸川 (Edogawa),2013-09-07,07:01～08:00,0.0926,0.0789,0.0848,
江戸川 (Edogawa),2013-09-07,06:01～07:00,0.0905,0.0800,0.0849,
江戸川 (Edogawa),2013-09-07,05:01～06:00,0.0894,0.0793,0.0847,
江戸川 (Edogawa),2013-09-07,04:01～05:00,0.0907,0.0801,0.0850,
江戸川 (Edogawa),2013-09-07,03:01～04:00,0.0916,0.0798,0.0852,
江戸川 (Edogawa),2013-09-07,02:01～03:00,0.0917,0.0796,0.0845,
江戸川 (Edogawa),2013-09-07,01:01～02:00,0.0915,0.0796,0.0848,
江戸川 (Edogawa),2013-09-07,00:01～01:00,0.0931,0.0799,0.0850,
江戸川 (Edogawa),2013-09-06,23:01～24:00,0.0898,0.0775,0.0848,
江戸川 (Edogawa),2013-09-06,22:01～23:00,0.0907,0.0796,0.0851,
江戸川 (Edogawa),2013-09-06,21:01～22:00,0.0908,0.0785,0.0846,
江戸川 (Edogawa),2013-09-06,20:01～21:00,0.0884,0.0784,0.0834,
江戸川 (Edogawa),2013-09-06,19:01～20:00,0.0915,0.0792,0.0846,
江戸川 (Edogawa),2013-09-06,18:01～19:00,0.0905,0.0762,0.0836,
江戸川 (Edogawa),2013-09-06,17:01～18:00,0.0885,0.0797,0.0841,
江戸川 (Edogawa),2013-09-06,16:01～17:00,0.0886,0.0776,0.0836,
江戸川 (Edogawa),2013-09-06,15:01～16:00,0.0885,0.0732,0.0839,
江戸川 (Edogawa),2013-09-06,14:01～15:00,0.0895,0.0802,0.0846,
江戸川 (Edogawa),2013-09-06,13:01～14:00,0.0902,0.0813,0.0844,
江戸川 (Edogawa),2013-09-06,12:01～13:00,0.0960,0.0809,0.0871,
江戸川 (Edogawa),2013-09-06,11:01～12:00,0.0919,0.0815,0.0867,
江戸川 (Edogawa),2013-09-06,10:01～11:00,0.0948,0.0802,0.0870,
江戸川 (Edogawa),2013-09-06,09:01～10:00,0.0917,0.0811,0.0868,
江戸川 (Edogawa),2013-09-06,08:01～09:00,0.0931,0.0799,0.0866,
江戸川 (Edogawa),2013-09-06,07:01～08:00,0.0918,0.0824,0.0873,
江戸川 (Edogawa),2013-09-06,06:01～07:00,0.0941,0.0823,0.0872,
江戸川 (Edogawa),2013-09-06,05:01～06:00,0.0936,0.0825,0.0871,
江戸川 (Edogawa),2013-09-06,04:01～05:00,0.0939,0.0801,0.0877,
江戸川 (Edogawa),2013-09-06,03:01～04:00,0.0929,0.0818,0.0871,
江戸川 (Edogawa),2013-09-06,02:01～03:00,0.0943,0.0818,0.0873,
江戸川 (Edogawa),2013-09-06,01:01～02:00,0.0918,0.0819,0.0869,
江戸川 (Edogawa),2013-09-06,00:01～01:00,0.0909,0.0813,0.0867,
江戸川 (Edogawa),2013-09-05,23:01～24:00,0.0909,0.0791,0.0867,
江戸川 (Edogawa),2013-09-05,22:01～23:00,0.0950,0.0824,0.0868,
江戸川 (Edogawa),2013-09-05,21:01～22:00,0.0928,0.0813,0.0863,
江戸川 (Edogawa),2013-09-05,20:01～21:00,0.0907,0.0798,0.0862,
江戸川 (Edogawa),2013-09-05,19:01～20:00,0.0957,0.0810,0.0864,
江戸川 (Edogawa),2013-09-05,18:01～19:00,0.0929,0.0796,0.0866,
江戸川 (Edogawa),2013-09-05,17:01～18:00,0.0920,0.0810,0.0853,
江戸川 (Edogawa),2013-09-05,16:01～17:00,0.0902,0.0807,0.0862,
江戸川 (Edogawa),2013-09-05,15:01～16:00,0.0917,0.0803,0.0860,
江戸川 (Edogawa),2013-09-05,14:01～15:00,0.0946,0.0815,0.0874,
江戸川 (Edogawa),2013-09-05,13:01～14:00,0.0935,0.0801,0.0870,
江戸川 (Edogawa),2013-09-05,12:01～13:00,0.0951,0.0812,0.0869,
江戸川 (Edogawa),2013-09-05,11:01～12:00,0.0947,0.0831,0.0883,
江戸川 (Edogawa),2013-09-05,10:01～11:00,0.0952,0.0829,0.0889,
江戸川 (Edogawa),2013-09-05,09:01～10:00,0.0918,0.0817,0.0864,
江戸川 (Edogawa),2013-09-05,08:01～09:00,0.0922,0.0795,0.0867,
江戸川 (Edogawa),2013-09-05,07:01～08:00,0.0938,0.0823,0.0873,
江戸川 (Edogawa),2013-09-05,06:01～07:00,0.0925,0.0825,0.0874,
江戸川 (Edogawa),2013-09-05,05:01～06:00,0.0933,0.0837,0.0878,
江戸川 (Edogawa),2013-09-05,04:01～05:00,0.0934,0.0829,0.0878,
江戸川 (Edogawa),2013-09-05,03:01～04:00,0.0949,0.0820,0.0872,
江戸川 (Edogawa),2013-09-05,02:01～03:00,0.0930,0.0828,0.0876,
江戸川 (Edogawa),2013-09-05,01:01～02:00,0.0942,0.0827,0.0880,
江戸川 (Edogawa),2013-09-05,00:01～01:00,0.0930,0.0821,0.0880,
江戸川 (Edogawa),2013-09-04,23:01～24:00,0.0925,0.0812,0.0879,
江戸川 (Edogawa),2013-09-04,22:01～23:00,0.0942,0.0826,0.0877,
江戸川 (Edogawa),2013-09-04,21:01～22:00,0.0932,0.0804,0.0878,
江戸川 (Edogawa),2013-09-04,20:01～21:00,0.0967,0.0830,0.0886,
江戸川 (Edogawa),2013-09-04,19:01～20:00,0.0916,0.0827,0.0873,
江戸川 (Edogawa),2013-09-04,18:01～19:00,0.0931,0.0829,0.0875,
江戸川 (Edogawa),2013-09-04,17:01～18:00,0.0954,0.0821,0.0880,
江戸川 (Edogawa),2013-09-04,16:01～17:00,0.0931,0.0798,0.0881,
江戸川 (Edogawa),2013-09-04,15:01～16:00,0.0929,0.0822,0.0874,
江戸川 (Edogawa),2013-09-04,14:01～15:00,0.0948,0.0837,0.0873,
江戸川 (Edogawa),2013-09-04,13:01～14:00,0.0919,0.0812,0.0865,
江戸川 (Edogawa),2013-09-04,12:01～13:00,0.0934,0.0818,0.0870,
江戸川 (Edogawa),2013-09-04,11:01～12:00,0.0931,0.0804,0.0873,
江戸川 (Edogawa),2013-09-04,10:01～11:00,0.0933,0.0824,0.0866,
江戸川 (Edogawa),2013-09-04,09:01～10:00,0.0908,0.0815,0.0867,
江戸川 (Edogawa),2013-09-04,08:01～09:00,0.0933,0.0804,0.0867,
江戸川 (Edogawa),2013-09-04,07:01～08:00,0.0941,0.0795,0.0880,
江戸川 (Edogawa),2013-09-04,06:01～07:00,0.0921,0.0783,0.0848,
江戸川 (Edogawa),2013-09-04,05:01～06:00,0.0951,0.0793,0.0874,
江戸川 (Edogawa),2013-09-04,04:01～05:00,0.0960,0.0842,0.0893,
江戸川 (Edogawa),2013-09-04,03:01～04:00,0.0946,0.0834,0.0892,
江戸川 (Edogawa),2013-09-04,02:01～03:00,0.0970,0.0821,0.0920,
江戸川 (Edogawa),2013-09-04,01:01～02:00,0.100,0.0869,0.0917,
江戸川 (Edogawa),2013-09-04,00:01～01:00,0.0982,0.0870,0.0920,
江戸川 (Edogawa),2013-09-03,23:01～24:00,0.0985,0.0876,0.0921,
江戸川 (Edogawa),2013-09-03,22:01～23:00,0.0966,0.0852,0.0919,
江戸川 (Edogawa),2013-09-03,21:01～22:00,0.0982,0.0847,0.0920,
江戸川 (Edogawa),2013-09-03,20:01～21:00,0.0978,0.0862,0.0923,
江戸川 (Edogawa),2013-09-03,19:01～20:00,0.0988,0.0867,0.0924,
江戸川 (Edogawa),2013-09-03,18:01～19:00,0.0988,0.0849,0.0920,
江戸川 (Edogawa),2013-09-03,17:01～18:00,0.0989,0.0865,0.0909,
江戸川 (Edogawa),2013-09-03,16:01～17:00,0.0967,0.0856,0.0912,
江戸川 (Edogawa),2013-09-03,15:01～16:00,0.0979,0.0849,0.0921,
江戸川 (Edogawa),2013-09-03,14:01～15:00,0.0967,0.0862,0.0916,
江戸川 (Edogawa),2013-09-03,13:01～14:00,0.0989,0.0852,0.0911,
江戸川 (Edogawa),2013-09-03,12:01～13:00,0.0986,0.0869,0.0917,
江戸川 (Edogawa),2013-09-03,11:01～12:00,0.0957,0.0845,0.0905,
江戸川 (Edogawa),2013-09-03,10:01～11:00,0.0982,0.0850,0.0917,
江戸川 (Edogawa),2013-09-03,09:01～10:00,0.0973,0.0855,0.0914,
江戸川 (Edogawa),2013-09-03,08:01～09:00,0.0964,0.0860,0.0913,
江戸川 (Edogawa),2013-09-03,07:01～08:00,0.0977,0.0838,0.0911,
江戸川 (Edogawa),2013-09-03,06:01～07:00,0.0997,0.0850,0.0910,
江戸川 (Edogawa),2013-09-03,05:01～06:00,0.100,0.0825,0.0911,
江戸川 (Edogawa),2013-09-03,04:01～05:00,0.0958,0.0844,0.0909,
江戸川 (Edogawa),2013-09-03,03:01～04:00,0.0964,0.0875,0.0916,
江戸川 (Edogawa),2013-09-03,02:01～03:00,0.0972,0.0857,0.0918,
江戸川 (Edogawa),2013-09-03,01:01～02:00,0.0982,0.0839,0.0915,
江戸川 (Edogawa),2013-09-03,00:01～01:00,0.0964,0.0863,0.0913,
江戸川 (Edogawa),2013-09-02,23:01～24:00,0.0980,0.0838,0.0912,
江戸川 (Edogawa),2013-09-02,22:01～23:00,0.0985,0.0841,0.0910,
江戸川 (Edogawa),2013-09-02,21:01～22:00,0.0963,0.0844,0.0914,
江戸川 (Edogawa),2013-09-02,20:01～21:00,0.0998,0.0858,0.0912,
江戸川 (Edogawa),2013-09-02,19:01～20:00,0.0999,0.0856,0.0913,
江戸川 (Edogawa),2013-09-02,18:01～19:00,0.0956,0.0876,0.0914,
江戸川 (Edogawa),2013-09-02,17:01～18:00,0.0998,0.0859,0.0919,
江戸川 (Edogawa),2013-09-02,16:01～17:00,0.0975,0.0864,0.0917,
江戸川 (Edogawa),2013-09-02,15:01～16:00,0.0991,0.0861,0.0909,
江戸川 (Edogawa),2013-09-02,14:01～15:00,0.0991,0.0859,0.0913,
江戸川 (Edogawa),2013-09-02,13:01～14:00,0.0986,0.0861,0.0915,
江戸川 (Edogawa),2013-09-02,12:01～13:00,0.0964,0.0861,0.0910,
江戸川 (Edogawa),2013-09-02,11:01～12:00,0.0960,0.0830,0.0908,
江戸川 (Edogawa),2013-09-02,10:01～11:00,0.0975,0.0861,0.0918,
江戸川 (Edogawa),2013-09-02,09:01～10:00,0.0963,0.0846,0.0914,
江戸川 (Edogawa),2013-09-02,08:01～09:00,0.0992,0.0871,0.0918,
江戸川 (Edogawa),2013-09-02,07:01～08:00,0.0975,0.0843,0.0915,
江戸川 (Edogawa),2013-09-02,06:01～07:00,0.0976,0.0849,0.0921,
江戸川 (Edogawa),2013-09-02,05:01～06:00,0.0971,0.0863,0.0915,
江戸川 (Edogawa),2013-09-02,04:01～05:00,0.0985,0.0875,0.0923,
江戸川 (Edogawa),2013-09-02,03:01～04:00,0.0986,0.0858,0.0926,
江戸川 (Edogawa),2013-09-02,02:01～03:00,0.0966,0.0876,0.0922,
江戸川 (Edogawa),2013-09-02,01:01～02:00,0.0974,0.0856,0.0918,
江戸川 (Edogawa),2013-09-02,00:01～01:00,0.0979,0.0873,0.0921,
